Simultaneous Nadir Overpasses (SNOs) Predictions

Prediction of SNOs between FY3D and NOAA-20 Satellite Orbit:

Table of predicted SNOs for the next 14.0 days since TLE Epoch: 9/5/2020
Index Date (FY3D) Time (FY3D) Lat,Lon (FY3D) SZA (FY3D ) Date (NOAA-20) Time (NOAA-20) Lat,Lon (NOAA-20) SZA (NOAA-20 ) Distance(km) Time Diff (sec)
1 09/11/2020 04:30:55 -81.20,-126.55 99.03 09/11/2020 04:29:39 -81.20,-126.47 99.00 1.39 76
2 09/11/2020 06:12:24 -81.20,-151.91 99.01 09/11/2020 06:11:09 -81.20,-151.91 98.97 0.09 75
3 09/11/2020 07:03:09 81.20, 15.37 81.02 09/11/2020 07:01:54 81.20, 15.36 81.06 0.15 75
4 09/11/2020 07:53:54 -81.21,-177.64 98.93 09/11/2020 07:52:40 -81.21,-177.72 98.88 1.30 74
5 09/11/2020 08:44:38 81.20, -9.98 81.04 09/11/2020 08:43:24 81.20, -10.07 81.09 1.50 74
6 09/11/2020 09:35:23 -81.21, 157.00 98.91 09/11/2020 09:34:10 -81.21, 156.85 98.84 2.64 73
7 09/11/2020 10:26:07 81.20, -35.33 81.06 09/11/2020 10:24:54 81.20, -35.50 81.13 2.86 73
8 09/11/2020 11:16:52 -81.21, 131.65 98.88 09/11/2020 11:15:39 -81.20, 131.80 98.87 2.61 73
9 09/11/2020 12:07:37 81.21, -61.07 81.14 09/11/2020 12:06:24 81.21, -60.93 81.16 2.41 73
10 09/11/2020 12:58:21 -81.21, 106.30 98.86 09/11/2020 12:57:09 -81.21, 106.37 98.83 1.27 72
11 09/11/2020 13:49:06 81.21, -86.43 81.16 09/11/2020 13:47:54 81.21, -86.37 81.19 1.05 72
12 09/11/2020 14:39:50 -81.21, 80.94 98.84 09/11/2020 14:38:39 -81.21, 80.94 98.80 0.08 71
13 09/11/2020 15:30:35 81.21,-111.78 81.19 09/11/2020 15:29:24 81.21,-111.80 81.23 0.31 71
14 09/11/2020 16:21:19 -81.21, 55.59 98.81 09/11/2020 16:20:09 -81.21, 55.51 98.76 1.42 70
15 09/11/2020 17:12:04 81.21,-137.13 81.21 09/11/2020 17:10:54 81.21,-137.23 81.26 1.67 70
16 09/11/2020 18:02:48 -81.21, 30.24 98.79 09/11/2020 18:01:39 -81.21, 30.07 98.73 2.76 69
17 09/11/2020 18:53:33 81.21,-162.49 81.23 09/11/2020 18:52:24 81.21,-162.66 81.30 3.02 69
18 09/11/2020 19:44:17 -81.21, 4.88 98.77 09/11/2020 19:43:08 -81.20, 5.03 98.75 2.48 69
19 09/11/2020 20:35:02 81.21, 172.16 81.26 09/11/2020 20:33:53 81.20, 172.29 81.28 2.24 69
20 09/11/2020 21:25:46 -81.21, -20.47 98.74 09/11/2020 21:24:38 -81.20, -20.41 98.72 1.14 68
21 09/11/2020 22:16:31 81.21, 146.80 81.28 09/11/2020 22:15:23 81.21, 146.86 81.31 0.88 68
22 09/11/2020 23:07:16 -81.21, -46.21 98.67 09/11/2020 23:06:09 -81.21, -46.22 98.63 0.22 67
23 09/11/2020 23:58:00 81.21, 121.45 81.30 09/11/2020 23:56:53 81.21, 121.42 81.34 0.48 67
24 09/12/2020 00:48:45 -81.21, -71.56 98.64 09/12/2020 00:47:39 -81.22, -71.65 98.59 1.55 66
25 09/12/2020 01:39:29 81.21, 96.10 81.33 09/12/2020 01:38:23 81.21, 95.99 81.38 1.83 66
26 09/12/2020 02:30:14 -81.21, -96.92 98.62 09/12/2020 02:29:09 -81.22, -97.08 98.56 2.89 65
27 09/12/2020 03:20:58 81.21, 70.74 81.35 09/12/2020 03:19:53 81.21, 70.56 81.41 3.19 65
28 09/12/2020 04:11:43 -81.21,-122.27 98.60 09/12/2020 04:10:38 -81.21,-122.13 98.58 2.36 65
29 09/12/2020 05:02:28 81.21, 45.00 81.43 09/12/2020 05:01:23 81.21, 45.13 81.45 2.07 65
30 09/12/2020 05:53:12 -81.21,-147.62 98.57 09/12/2020 05:52:08 -81.21,-147.56 98.55 1.01 64
31 09/12/2020 06:43:57 81.21, 19.65 81.45 09/12/2020 06:42:53 81.21, 19.69 81.48 0.71 64
32 09/12/2020 07:34:41 -81.21,-172.98 98.55 09/12/2020 07:33:38 -81.21,-172.99 98.51 0.33 63
33 09/12/2020 08:25:26 81.21, -5.70 81.48 09/12/2020 08:24:23 81.21, -5.74 81.52 0.65 63
34 09/12/2020 09:16:10 -81.21, 161.67 98.53 09/12/2020 09:15:08 -81.21, 161.57 98.48 1.68 62
35 09/12/2020 10:06:55 81.21, -31.06 81.50 09/12/2020 10:05:53 81.22, -31.17 81.55 2.00 62
36 09/12/2020 10:57:39 -81.21, 136.32 98.50 09/12/2020 10:56:38 -81.22, 136.14 98.44 3.02 61
37 09/12/2020 11:48:24 81.21, -56.41 81.52 09/12/2020 11:47:22 81.21, -56.22 81.53 3.26 62
38 09/12/2020 12:39:08 -81.21, 110.96 98.48 09/12/2020 12:38:07 -81.21, 111.09 98.46 2.23 61
39 09/12/2020 13:29:53 81.21, -81.76 81.55 09/12/2020 13:28:52 81.21, -81.65 81.56 1.90 61
40 09/12/2020 14:20:36 -81.21, 85.61 98.46 09/12/2020 14:19:36 -81.21, 85.66 98.43 0.88 60
41 09/12/2020 15:11:21 81.21,-107.12 81.57 09/12/2020 15:10:21 81.21,-107.09 81.60 0.55 60
42 09/12/2020 16:02:06 -81.22, 59.87 98.38 09/12/2020 16:01:07 -81.22, 59.85 98.34 0.47 59
43 09/12/2020 16:52:50 81.21,-132.47 81.59 09/12/2020 16:51:51 81.21,-132.52 81.63 0.82 59
44 09/12/2020 17:43:35 -81.22, 34.52 98.35 09/12/2020 17:42:37 -81.22, 34.41 98.31 1.81 58
45 09/12/2020 18:34:19 81.21,-157.82 81.62 09/12/2020 18:33:21 81.21,-157.95 81.67 2.17 58
46 09/12/2020 19:25:04 -81.22, 9.17 98.33 09/12/2020 19:24:07 -81.22, 8.98 98.27 3.15 57
47 09/12/2020 20:15:49 81.22, 176.44 81.69 09/12/2020 20:14:51 81.21, 176.62 81.70 3.09 58
48 09/12/2020 21:06:33 -81.22, -16.19 98.31 09/12/2020 21:05:36 -81.21, -16.07 98.29 2.09 57
49 09/12/2020 21:57:18 81.22, 151.08 81.72 09/12/2020 21:56:21 81.22, 151.18 81.73 1.73 57
50 09/12/2020 22:48:02 -81.22, -41.54 98.28 09/12/2020 22:47:06 -81.22, -41.50 98.26 0.75 56
51 09/12/2020 23:38:47 81.22, 125.73 81.74 09/12/2020 23:37:51 81.22, 125.75 81.77 0.37 56
52 09/13/2020 00:29:31 -81.22, -66.89 98.26 09/13/2020 00:28:36 -81.22, -66.93 98.23 0.60 55
53 09/13/2020 01:20:16 81.22, 100.37 81.76 09/13/2020 01:19:21 81.22, 100.32 81.80 0.99 55
54 09/13/2020 02:11:00 -81.22, -92.25 98.24 09/13/2020 02:10:06 -81.22, -92.36 98.19 1.94 54
55 09/13/2020 03:01:45 81.22, 75.02 81.79 09/13/2020 03:00:51 81.22, 74.88 81.84 2.34 54
56 09/13/2020 03:52:29 -81.22,-117.60 98.21 09/13/2020 03:51:36 -81.22,-117.79 98.16 3.29 53
57 09/13/2020 04:43:14 81.22, 49.67 81.81 09/13/2020 04:42:20 81.21, 49.84 81.82 2.92 54
58 09/13/2020 05:33:58 -81.22,-142.95 98.19 09/13/2020 05:33:05 -81.21,-142.84 98.18 1.96 53
59 09/13/2020 06:24:43 81.22, 24.31 81.83 09/13/2020 06:23:50 81.21, 24.40 81.85 1.56 53
60 09/13/2020 07:15:27 -81.21,-168.31 98.17 09/13/2020 07:14:35 -81.21,-168.27 98.14 0.62 52
61 09/13/2020 08:06:12 81.22, -1.04 81.86 09/13/2020 08:05:20 81.21, -1.03 81.89 0.21 52
62 09/13/2020 08:56:57 -81.22, 165.95 98.09 09/13/2020 08:56:06 -81.22, 165.91 98.05 0.73 51
63 09/13/2020 09:47:41 81.22, -26.39 81.88 09/13/2020 09:46:50 81.22, -26.46 81.92 1.16 51
64 09/13/2020 10:38:26 -81.22, 140.60 98.07 09/13/2020 10:37:36 -81.22, 140.48 98.02 2.08 50
65 09/13/2020 11:29:10 81.22, -51.75 81.91 09/13/2020 11:28:20 81.22, -51.89 81.95 2.52 50
66 09/13/2020 12:19:55 -81.22, 115.25 98.04 09/13/2020 12:19:05 -81.22, 115.43 98.04 3.17 50
67 09/13/2020 13:10:40 81.22, -77.49 81.98 09/13/2020 13:09:50 81.22, -77.33 81.99 2.75 50
68 09/13/2020 14:01:24 -81.22, 89.89 98.02 09/13/2020 14:00:35 -81.22, 90.00 98.01 1.82 49
69 09/13/2020 14:52:09 81.22,-102.84 82.01 09/13/2020 14:51:20 81.22,-102.76 82.02 1.39 49
70 09/13/2020 15:42:53 -81.22, 64.54 97.99 09/13/2020 15:42:05 -81.22, 64.57 97.97 0.48 48
71 09/13/2020 16:33:38 81.22,-128.20 82.03 09/13/2020 16:32:50 81.22,-128.19 82.06 0.04 48
72 09/13/2020 17:24:22 -81.22, 39.19 97.97 09/13/2020 17:23:35 -81.22, 39.14 97.94 0.87 47
73 09/13/2020 18:15:07 81.22,-153.55 82.05 09/13/2020 18:14:20 81.22,-153.63 82.09 1.33 47
74 09/13/2020 19:05:51 -81.22, 13.83 97.95 09/13/2020 19:05:05 -81.22, 13.70 97.90 2.21 46
75 09/13/2020 19:56:36 81.22,-178.90 82.08 09/13/2020 19:55:50 81.22,-179.06 82.13 2.69 46
76 09/13/2020 20:47:20 -81.22, -11.52 97.92 09/13/2020 20:46:34 -81.22, -11.35 97.92 3.03 46
77 09/13/2020 21:38:05 81.22, 155.74 82.10 09/13/2020 21:37:19 81.22, 155.89 82.10 2.57 46
78 09/13/2020 22:28:49 -81.22, -36.87 97.90 09/13/2020 22:28:04 -81.22, -36.78 97.89 1.69 45
79 09/13/2020 23:19:34 81.22, 130.39 82.12 09/13/2020 23:18:49 81.22, 130.46 82.14 1.22 45
80 09/14/2020 00:10:18 -81.22, -62.23 97.88 09/14/2020 00:09:34 -81.22, -62.21 97.86 0.35 44
81 09/14/2020 01:01:03 81.22, 105.04 82.15 09/14/2020 01:00:19 81.22, 105.03 82.17 0.15 44
82 09/14/2020 01:51:48 -81.23, -87.97 97.80 09/14/2020 01:51:05 -81.23, -88.03 97.77 1.01 43
83 09/14/2020 02:42:32 81.22, 79.68 82.17 09/14/2020 02:41:49 81.22, 79.59 82.21 1.50 43
84 09/14/2020 03:33:17 -81.23,-113.32 97.78 09/14/2020 03:32:35 -81.23,-113.46 97.73 2.35 42
85 09/14/2020 04:24:01 81.22, 54.33 82.20 09/14/2020 04:23:19 81.22, 54.16 82.24 2.86 42
86 09/14/2020 05:14:46 -81.23,-138.67 97.75 09/14/2020 05:14:04 -81.22,-138.51 97.75 2.89 42
87 09/14/2020 06:05:31 81.23, 28.59 82.27 09/14/2020 06:04:49 81.22, 28.73 82.28 2.40 42
88 09/14/2020 06:56:15 -81.22,-164.03 97.73 09/14/2020 06:55:34 -81.22,-163.94 97.72 1.55 41
89 09/14/2020 07:47:00 81.23, 3.23 82.30 09/14/2020 07:46:19 81.23, 3.29 82.31 1.04 41
90 09/14/2020 08:37:44 -81.22, 170.62 97.70 09/14/2020 08:37:04 -81.22, 170.63 97.68 0.20 40
91 09/14/2020 09:28:29 81.23, -22.12 82.32 09/14/2020 09:27:49 81.23, -22.14 82.35 0.32 40
92 09/14/2020 10:19:13 -81.22, 145.27 97.68 09/14/2020 10:18:34 -81.23, 145.20 97.65 1.14 39
93 09/14/2020 11:09:58 81.23, -47.47 82.34 09/14/2020 11:09:19 81.23, -47.57 82.38 1.68 39
94 09/14/2020 12:00:42 -81.22, 119.91 97.66 09/14/2020 12:00:04 -81.23, 119.77 97.62 2.49 38
95 09/14/2020 12:51:27 81.23, -72.83 82.37 09/14/2020 12:50:49 81.23, -73.01 82.41 3.04 38
96 09/14/2020 13:42:11 -81.22, 94.56 97.63 09/14/2020 13:41:33 -81.22, 94.72 97.64 2.75 38
97 09/14/2020 14:32:56 81.22, -98.18 82.39 09/14/2020 14:32:18 81.22, -98.05 82.39 2.22 38
98 09/14/2020 15:23:40 -81.22, 69.20 97.61 09/14/2020 15:23:03 -81.22, 69.29 97.60 1.41 37
99 09/14/2020 16:14:25 81.22,-123.54 82.42 09/14/2020 16:13:48 81.22,-123.49 82.43 0.87 37
100 09/14/2020 17:05:09 -81.22, 43.85 97.59 09/14/2020 17:04:33 -81.22, 43.85 97.57 0.09 36
101 09/14/2020 17:55:53 81.22,-148.89 82.44 09/14/2020 17:55:17 81.22,-148.92 82.46 0.50 36
102 09/14/2020 18:46:37 -81.22, 18.50 97.56 09/14/2020 18:46:02 -81.22, 18.42 97.53 1.29 35
103 09/14/2020 19:37:22 81.22,-174.24 82.46 09/14/2020 19:36:47 81.23,-174.35 82.50 1.85 35
104 09/14/2020 20:28:07 -81.23, -7.24 97.49 09/14/2020 20:27:33 -81.23, -7.40 97.44 2.63 34
105 09/14/2020 21:18:51 81.22, 160.40 82.49 09/14/2020 21:18:17 81.23, 160.21 82.53 3.21 34
106 09/14/2020 22:09:36 -81.23, -32.60 97.46 09/14/2020 22:09:02 -81.23, -32.44 97.47 2.61 34
107 09/14/2020 23:00:21 81.23, 134.66 82.56 09/14/2020 22:59:47 81.23, 134.78 82.57 2.05 34
108 09/14/2020 23:51:05 -81.23, -57.95 97.44 09/14/2020 23:50:32 -81.23, -57.88 97.43 1.26 33
109 09/15/2020 00:41:50 81.23, 109.31 82.59 09/15/2020 00:41:17 81.23, 109.35 82.60 0.69 33
110 09/15/2020 01:32:34 -81.23, -83.30 97.41 09/15/2020 01:32:02 -81.23, -83.31 97.40 0.09 32
111 09/15/2020 02:23:19 81.23, 83.95 82.61 09/15/2020 02:22:47 81.23, 83.91 82.64 0.67 32
112 09/15/2020 03:14:03 -81.23,-108.66 97.39 09/15/2020 03:13:32 -81.23,-108.74 97.36 1.43 31
113 09/15/2020 04:04:48 81.23, 58.60 82.64 09/15/2020 04:04:17 81.23, 58.48 82.67 2.03 31
114 09/15/2020 04:55:32 -81.23,-134.01 97.37 09/15/2020 04:55:02 -81.23,-134.17 97.33 2.78 30
115 09/15/2020 05:46:17 81.23, 33.25 82.66 09/15/2020 05:45:46 81.23, 33.43 82.65 3.23 31
116 09/15/2020 06:37:01 -81.23,-159.36 97.34 09/15/2020 06:36:31 -81.22,-159.22 97.35 2.47 30
117 09/15/2020 07:27:46 81.23, 7.89 82.68 09/15/2020 07:27:16 81.23, 8.00 82.68 1.87 30
118 09/15/2020 08:18:30 -81.23, 175.28 97.32 09/15/2020 08:18:01 -81.23, 175.35 97.31 1.12 29
119 09/15/2020 09:09:15 81.23, -17.46 82.71 09/15/2020 09:08:46 81.23, -17.43 82.72 0.51 29
120 09/15/2020 09:59:59 -81.23, 149.93 97.30 09/15/2020 09:59:31 -81.23, 149.92 97.28 0.24 28
121 09/15/2020 10:50:44 81.23, -42.82 82.73 09/15/2020 10:50:16 81.23, -42.87 82.75 0.85 28
122 09/15/2020 11:41:28 -81.23, 124.58 97.27 09/15/2020 11:41:01 -81.23, 124.48 97.25 1.58 27
123 09/15/2020 12:32:13 81.23, -68.17 82.75 09/15/2020 12:31:46 81.23, -68.30 82.79 2.21 27
124 09/15/2020 13:22:57 -81.23, 99.22 97.25 09/15/2020 13:22:31 -81.23, 99.05 97.21 2.92 26
125 09/15/2020 14:13:43 81.23, -93.91 82.83 09/15/2020 14:13:16 81.23, -93.73 82.82 3.06 27
126 09/15/2020 15:04:27 -81.23, 73.48 97.17 09/15/2020 15:04:01 -81.23, 73.62 97.18 2.32 26
127 09/15/2020 15:55:12 81.23,-119.27 82.86 09/15/2020 15:54:46 81.23,-119.17 82.86 1.70 26
128 09/15/2020 16:45:56 -81.23, 48.13 97.15 09/15/2020 16:45:31 -81.23, 48.19 97.14 0.97 25
129 09/15/2020 17:36:41 81.23,-144.62 82.88 09/15/2020 17:36:16 81.23,-144.60 82.89 0.35 25
130 09/15/2020 18:27:25 -81.23, 22.77 97.12 09/15/2020 18:27:01 -81.23, 22.75 97.11 0.38 24
131 09/15/2020 19:18:10 81.23,-169.97 82.90 09/15/2020 19:17:46 81.24,-170.03 82.93 1.03 24
132 09/15/2020 20:08:54 -81.23, -2.58 97.10 09/15/2020 20:08:31 -81.23, -2.68 97.07 1.72 23
133 09/15/2020 20:59:39 81.23, 164.67 82.93 09/15/2020 20:59:16 81.24, 164.53 82.96 2.38 23
134 09/15/2020 21:50:23 -81.23, -27.93 97.08 09/15/2020 21:50:01 -81.24, -28.11 97.04 3.07 22
135 09/15/2020 22:41:08 81.23, 139.32 82.95 09/15/2020 22:40:45 81.23, 139.49 82.94 2.88 23
136 09/15/2020 23:31:52 -81.23, -53.29 97.05 09/15/2020 23:31:30 -81.23, -53.16 97.06 2.17 22
137 09/16/2020 00:22:37 81.23, 113.96 82.97 09/16/2020 00:22:15 81.23, 114.05 82.97 1.52 22
138 09/16/2020 01:13:21 -81.23, -78.64 97.03 09/16/2020 01:13:00 -81.23, -78.59 97.02 0.82 21
139 09/16/2020 02:04:06 81.23, 88.61 83.00 09/16/2020 02:03:45 81.23, 88.62 83.01 0.16 21
140 09/16/2020 02:54:50 -81.23,-103.99 97.01 09/16/2020 02:54:30 -81.23,-104.02 96.99 0.53 20
141 09/16/2020 03:45:35 81.23, 63.26 83.02 09/16/2020 03:45:15 81.23, 63.19 83.04 1.20 20
142 09/16/2020 04:36:19 -81.23,-129.35 96.98 09/16/2020 04:36:00 -81.23,-129.46 96.96 1.87 19
143 09/16/2020 05:27:04 81.23, 37.90 83.05 09/16/2020 05:26:45 81.23, 37.75 83.08 2.56 19
144 09/16/2020 06:17:48 -81.23,-154.70 96.96 09/16/2020 06:17:30 -81.23,-154.89 96.92 3.22 18
145 09/16/2020 07:08:33 81.23, 12.55 83.07 09/16/2020 07:08:14 81.23, 12.71 83.06 2.70 19
146 09/16/2020 07:59:18 -81.24, 179.56 96.88 09/16/2020 07:59:00 -81.24, 179.68 96.89 2.02 18
147 09/16/2020 08:50:02 81.23, -12.81 83.09 09/16/2020 08:49:44 81.23, -12.73 83.09 1.34 18
148 09/16/2020 09:40:47 -81.24, 154.20 96.86 09/16/2020 09:40:30 -81.24, 154.24 96.85 0.68 17
149 09/16/2020 10:31:31 81.23, -38.16 83.12 09/16/2020 10:31:14 81.23, -38.16 83.13 0.09 17
150 09/16/2020 11:22:16 -81.24, 128.85 96.83 09/16/2020 11:22:00 -81.24, 128.81 96.82 0.68 16
151 09/16/2020 12:13:00 81.23, -63.51 83.14 09/16/2020 12:12:44 81.23, -63.59 83.16 1.38 16
152 09/16/2020 13:03:45 -81.24, 103.50 96.81 09/16/2020 13:03:30 -81.24, 103.38 96.78 2.02 15
153 09/16/2020 13:54:29 81.23, -88.87 83.16 09/16/2020 13:54:14 81.23, -89.03 83.20 2.74 15
154 09/16/2020 14:45:14 -81.24, 78.14 96.79 09/16/2020 14:44:59 -81.23, 78.33 96.80 3.22 15
155 09/16/2020 15:35:59 81.24,-114.61 83.24 09/16/2020 15:35:44 81.23,-114.46 83.23 2.52 15
156 09/16/2020 16:26:43 -81.24, 52.79 96.76 09/16/2020 16:26:29 -81.23, 52.90 96.77 1.87 14
157 09/16/2020 17:17:28 81.24,-139.96 83.27 09/16/2020 17:17:14 81.24,-139.90 83.26 1.16 14
158 09/16/2020 18:08:12 -81.24, 27.44 96.74 09/16/2020 18:07:59 -81.23, 27.47 96.74 0.52 13
159 09/16/2020 18:58:57 81.24,-165.32 83.29 09/16/2020 18:58:44 81.24,-165.33 83.30 0.20 13
160 09/16/2020 19:49:41 -81.23, 2.08 96.71 09/16/2020 19:49:29 -81.24, 2.03 96.70 0.83 12
161 09/16/2020 20:40:25 81.24, 169.33 83.31 09/16/2020 20:40:13 81.24, 169.24 83.33 1.56 12
162 09/16/2020 21:31:09 -81.23, -23.27 96.69 09/16/2020 21:30:58 -81.24, -23.40 96.67 2.18 11
163 09/16/2020 22:21:54 81.24, 143.97 83.34 09/16/2020 22:21:43 81.24, 143.80 83.37 2.92 11
164 09/16/2020 23:12:38 -81.23, -48.63 96.67 09/16/2020 23:12:27 -81.23, -48.45 96.69 3.07 11
165 09/17/2020 00:03:23 81.24, 118.62 83.36 09/17/2020 00:03:12 81.23, 118.76 83.35 2.34 11
166 09/17/2020 00:54:07 -81.23, -73.98 96.64 09/17/2020 00:53:57 -81.23, -73.88 96.65 1.72 10
167 09/17/2020 01:44:52 81.24, 93.27 83.39 09/17/2020 01:44:42 81.23, 93.32 83.38 0.98 10
168 09/17/2020 02:35:37 -81.24, -99.72 96.56 09/17/2020 02:35:28 -81.24, -99.70 96.56 0.38 9
169 09/17/2020 03:26:21 81.23, 67.91 83.41 09/17/2020 03:26:12 81.23, 67.89 83.42 0.39 9
170 09/17/2020 04:17:06 -81.24,-125.07 96.54 09/17/2020 04:16:58 -81.24,-125.13 96.53 0.99 8
171 09/17/2020 05:07:50 81.23, 42.56 83.43 09/17/2020 05:07:42 81.24, 42.46 83.45 1.74 8
172 09/17/2020 05:58:35 -81.24,-150.43 96.52 09/17/2020 05:58:28 -81.24,-150.56 96.49 2.33 7
173 09/17/2020 06:49:19 81.23, 17.20 83.46 09/17/2020 06:49:12 81.24, 17.02 83.49 3.10 7
174 09/17/2020 07:40:04 -81.24,-175.78 96.49 09/17/2020 07:39:57 -81.24,-175.61 96.51 2.91 7
175 09/17/2020 08:30:49 81.24, -8.54 83.53 09/17/2020 08:30:42 81.24, -8.41 83.52 2.16 7
176 09/17/2020 09:21:33 -81.24, 158.87 96.47 09/17/2020 09:21:27 -81.24, 158.96 96.48 1.56 6
177 09/17/2020 10:12:18 81.24, -33.89 83.56 09/17/2020 10:12:12 81.24, -33.85 83.56 0.80 6
178 09/17/2020 11:03:02 -81.24, 133.51 96.45 09/17/2020 11:02:57 -81.24, 133.52 96.44 0.21 5
179 09/17/2020 11:53:47 81.24, -59.25 83.58 09/17/2020 11:53:42 81.24, -59.28 83.59 0.57 5
180 09/17/2020 12:44:31 -81.24, 108.16 96.42 09/17/2020 12:44:27 -81.24, 108.09 96.41 1.14 4
181 09/17/2020 13:35:16 81.24, -84.60 83.61 09/17/2020 13:35:12 81.24, -84.71 83.62 1.92 4
182 09/17/2020 14:26:00 -81.24, 82.80 96.40 09/17/2020 14:25:57 -81.24, 82.66 96.38 2.49 3
183 09/17/2020 15:16:45 81.24,-109.96 83.63 09/17/2020 15:16:42 81.24,-110.15 83.66 3.28 3
184 09/17/2020 16:07:29 -81.24, 57.45 96.37 09/17/2020 16:07:26 -81.23, 57.61 96.40 2.75 3
185 09/17/2020 16:58:14 81.24,-135.31 83.65 09/17/2020 16:58:11 81.24,-135.19 83.64 1.98 3
186 09/17/2020 17:48:58 -81.24, 32.10 96.35 09/17/2020 17:48:56 -81.24, 32.18 96.36 1.40 2
187 09/17/2020 18:39:43 81.24,-160.66 83.68 09/17/2020 18:39:41 81.24,-160.63 83.67 0.62 2
188 09/17/2020 19:30:27 -81.24, 6.74 96.33 09/17/2020 19:30:26 -81.24, 6.74 96.33 0.09 1
189 09/17/2020 20:21:12 81.24, 173.98 83.70 09/17/2020 20:21:11 81.24, 173.94 83.71 0.75 1
190 09/17/2020 21:11:56 -81.24, -18.61 96.30 09/17/2020 21:11:56 -81.24, -18.69 96.29 1.30 0
191 09/17/2020 22:02:41 81.24, 148.63 83.73 09/17/2020 22:02:41 81.24, 148.50 83.74 2.11 0
192 09/17/2020 22:53:25 -81.24, -43.97 96.28 09/17/2020 22:53:26 -81.24, -44.12 96.26 2.65 1
193 09/17/2020 23:44:11 81.24, 122.89 83.80 09/17/2020 23:44:11 81.24, 123.07 83.78 3.16 0
194 09/18/2020 00:34:55 -81.24, -69.71 96.20 09/18/2020 00:34:56 -81.24, -69.55 96.22 2.59 1
195 09/18/2020 01:25:40 81.24, 97.53 83.83 09/18/2020 01:25:41 81.24, 97.64 83.81 1.80 1
196 09/18/2020 02:16:24 -81.24, -95.06 96.18 09/18/2020 02:16:26 -81.24, -94.99 96.19 1.24 2
197 09/18/2020 03:07:09 81.24, 72.18 83.85 09/18/2020 03:07:11 81.24, 72.20 83.85 0.44 2
198 09/18/2020 03:57:53 -81.24,-120.41 96.15 09/18/2020 03:57:56 -81.24,-120.42 96.15 0.12 3
199 09/18/2020 04:48:38 81.24, 46.82 83.88 09/18/2020 04:48:41 81.25, 46.77 83.88 0.93 3
200 09/18/2020 05:39:22 -81.24,-145.77 96.13 09/18/2020 05:39:26 -81.24,-145.85 96.12 1.46 4
201 09/18/2020 06:30:07 81.24, 21.47 83.90 09/18/2020 06:30:11 81.25, 21.33 83.92 2.29 4
202 09/18/2020 07:20:51 -81.24,-171.12 96.11 09/18/2020 07:20:56 -81.25,-171.29 96.09 2.81 5
203 09/18/2020 08:11:36 81.24, -3.89 83.92 09/18/2020 08:11:40 81.24, -3.71 83.90 2.97 4
204 09/18/2020 09:02:20 -81.24, 163.52 96.08 09/18/2020 09:02:25 -81.24, 163.67 96.11 2.43 5
205 09/18/2020 09:53:05 81.24, -29.24 83.95 09/18/2020 09:53:10 81.24, -29.15 83.93 1.61 5
206 09/18/2020 10:43:49 -81.24, 138.17 96.06 09/18/2020 10:43:55 -81.24, 138.23 96.07 1.08 6
207 09/18/2020 11:34:34 81.24, -54.59 83.97 09/18/2020 11:34:40 81.24, -54.58 83.97 0.25 6
208 09/18/2020 12:25:18 -81.24, 112.82 96.03 09/18/2020 12:25:25 -81.24, 112.80 96.04 0.27 7
209 09/18/2020 13:16:03 81.24, -79.95 84.00 09/18/2020 13:16:10 81.24, -80.01 84.00 1.11 7
210 09/18/2020 14:06:47 -81.24, 87.46 96.01 09/18/2020 14:06:55 -81.24, 87.37 96.00 1.62 8
211 09/18/2020 14:57:32 81.24,-105.30 84.02 09/18/2020 14:57:40 81.24,-105.45 84.04 2.47 8
212 09/18/2020 15:48:16 -81.24, 62.11 95.99 09/18/2020 15:48:25 -81.24, 61.93 95.97 2.97 9
213 09/18/2020 16:39:01 81.24,-130.66 84.04 09/18/2020 16:39:09 81.24,-130.49 84.02 2.79 8
214 09/18/2020 17:29:46 -81.25, 36.37 95.91 09/18/2020 17:29:55 -81.24, 36.50 95.93 2.27 9
215 09/18/2020 18:20:30 81.24,-156.01 84.07 09/18/2020 18:20:39 81.24,-155.93 84.05 1.43 9
216 09/18/2020 19:11:15 -81.25, 11.01 95.88 09/18/2020 19:11:25 -81.25, 11.07 95.90 0.92 10
217 09/18/2020 20:01:59 81.24, 178.63 84.09 09/18/2020 20:02:09 81.24, 178.64 84.08 0.10 10
218 09/18/2020 20:52:44 -81.25, -14.34 95.86 09/18/2020 20:52:55 -81.25, -14.37 95.86 0.44 11
219 09/18/2020 21:43:28 81.24, 153.28 84.11 09/18/2020 21:43:39 81.24, 153.20 84.12 1.30 11
220 09/18/2020 22:34:13 -81.25, -39.69 95.84 09/18/2020 22:34:25 -81.25, -39.80 95.83 1.79 12
221 09/18/2020 23:24:57 81.24, 127.93 84.14 09/18/2020 23:25:09 81.24, 127.77 84.15 2.66 12
222 09/19/2020 00:15:41 -81.25, -65.05 95.81 09/19/2020 00:15:54 -81.25, -65.23 95.79 3.14 13
223 09/19/2020 01:06:26 81.25, 102.18 84.22 09/19/2020 01:06:38 81.24, 102.34 84.19 2.60 12
